UTC calendar date,Angular Size (deg),Planetocentric subspacecraft Longitude (deg),Planetocentric sub-spacecraft Latitude (deg),Planetocentric Subsolar Longitude (deg),Planetocentric Subsolar Latitude (deg),Planetographic Sub-Spacecraft Longitude (deg),Planetographic Sub-Spacecraft  Latitude (deg),Planetographic Solar Longitude (deg),Planetographic Solar Latitude (deg),Sub-Point Radius (km),Observer Distance (km),Phase Angle (deg)
2023-05-16 02:22:37.000000 UTC,16.54334806,-144.6671706,1.1172342,134.390132,2.51651566,144.6671706,1.27757788,225.609868,2.87722517,71490.04908,425441.4518,80.89699856
2023-05-16 02:32:37.000000 UTC,16.95669804,-150.7814709,1.65663889,128.3453793,2.51652733,150.7814709,1.89430855,231.6546207,2.87723851,71487.71135,413415.8202,80.79893574
2023-05-16 02:42:37.000000 UTC,17.396393,-156.8993707,2.22426246,122.3006265,2.516539,156.8993707,2.54319128,237.6993735,2.87725186,71484.27127,401254.4802,80.69698737
2023-05-16 02:52:37.000000 UTC,17.86517466,-163.0212306,2.82276523,116.2558738,2.51655068,163.0212306,3.22720695,243.7441262,2.8772652,71479.55745,388951.875,80.59088791
2023-05-16 03:02:37.000000 UTC,18.36618976,-169.1474598,3.45515925,110.211121,2.51656235,169.1474598,3.94972045,249.788879,2.87727854,71473.36778,376502.0073,80.4803542
2023-05-16 03:12:37.000000 UTC,18.90306073,-175.2785066,4.12486675,104.1663683,2.51657403,175.2785066,4.71454217,255.8336317,2.87729188,71465.46297,363898.5762,80.36510422
2023-05-16 03:22:37.000000 UTC,19.479964,178.5851373,4.8358479,98.12161553,2.5165857,181.4148627,5.52606681,261.8783845,2.87730522,71455.55765,351135.2956,80.244862
2023-05-16 03:32:37.000000 UTC,20.10175523,172.4428709,5.59275897,92.07686278,2.51659737,187.5571291,6.38944409,267.9231372,2.87731856,71443.30848,338205.6125,80.11930593
2023-05-16 03:42:37.000000 UTC,20.77413834,166.2939478,6.40104077,86.03211002,2.51660904,193.7060522,7.3106664,273.96789,2.8773319,71428.30027,325102.235,79.98805662
2023-05-16 03:52:37.000000 UTC,21.50385459,160.1374749,7.26705084,79.98735727,2.51662072,199.8625251,8.29670142,280.0126427,2.87734524,71410.02836,311817.1797,79.85070576
2023-05-16 04:02:37.000000 UTC,22.29892198,153.972387,8.19828056,73.94260452,2.51663239,206.027613,9.35571448,286.0573955,2.87735858,71387.87506,298341.8729,79.7068305
2023-05-16 04:12:37.000000 UTC,23.16895093,147.7973992,9.20364015,67.89785176,2.51664406,212.2026008,10.49735813,292.1021482,2.87737192,71361.07845,284667.171,79.55600165
2023-05-16 04:22:37.000000 UTC,24.12556123,141.6109412,10.29382736,61.85309901,2.51665573,218.3890588,11.7331417,298.146901,2.87738526,71328.6908,270783.3601,79.39779684
2023-05-16 04:32:37.000000 UTC,25.18293757,135.4110676,11.48181349,55.80834625,2.5166674,224.5889324,13.07691166,304.1916538,2.8773986,71289.52269,256680.1693,79.23182423
2023-05-16 04:42:37.000000 UTC,26.35857953,129.1953315,12.78349539,49.76359349,2.51667907,230.8046685,14.54548654,310.2364065,2.87741194,71242.06704,242346.8213,79.0577628
2023-05-16 04:52:37.000000 UTC,27.67432951,122.9606033,14.21858483,43.71884073,2.51669074,237.0393967,16.15950798,316.2811593,2.87742528,71184.39461,227772.1447,78.87542944
2023-05-16 05:02:37.000000 UTC,29.15780521,116.7028037,15.81184159,37.67408797,2.51670241,243.2971964,17.94459793,322.325912,2.87743861,71114.00899,212944.7894,78.68488978
2023-05-16 05:12:37.000000 UTC,30.8444329,110.4164973,17.59481381,31.62933521,2.51671408,249.5835027,19.93295527,328.3706648,2.87745195,71027.64317,197853.6106,78.48664183
2023-05-16 05:22:37.000000 UTC,32.78039178,104.0942533,19.60834089,25.58458245,2.51672575,255.9057467,22.16559189,334.4154176,2.87746529,70920.97247,182488.3294,78.28192265
2023-05-16 05:32:37.000000 UTC,35.02697298,97.72559702,21.90622535,19.53982969,2.51673742,262.274403,24.69551235,340.4601703,2.87747862,70788.20877,166840.6568,78.07322712
2023-05-16 05:42:37.000000 UTC,37.66718999,91.2952081,24.56073194,13.49507693,2.51674909,268.7047919,27.59230135,346.5049231,2.87749196,70621.53217,150906.1952,77.86519872
2023-05-16 05:52:37.000000 UTC,40.81606791,84.77963546,27.67099283,7.45032416,2.51676076,275.2203645,30.94882637,352.5496758,2.8775053,70410.32096,134687.6724,77.66618562
2023-05-16 06:02:37.000000 UTC,44.63710468,78.14086015,31.37608776,1.40557139,2.51677243,281.8591399,34.89110633,358.5944286,2.87751863,70140.20162,118200.4849,77.49100561
2023-05-16 06:12:37.000000 UTC,49.36934031,71.31246024,35.8756204,-4.63918137,2.51678409,288.6875398,39.59279745,4.63918137,2.87753197,69792.19587,101482.3059,77.36592973
2023-05-16 06:22:37.000000 UTC,55.37293603,64.16600143,41.46182532,-10.68393414,2.51679576,295.8339986,45.29587167,10.68393414,2.8775453,69343.11639,84609.89696,77.3377157
2023-05-16 06:32:37.000000 UTC,63.20668452,56.4141183,48.56665249,-16.72868691,2.51680743,303.5858817,52.33742012,16.72868691,2.87755863,68771.07824,67728.65479,77.48975528
2023-05-16 06:42:37.000000 UTC,73.75551748,47.24752281,57.81340301,-22.77343968,2.5168191,312.7524772,61.17200267,22.77343968,2.87757197,68077.50685,51104.17402,77.96934643
2023-05-16 06:52:37.000000 UTC,88.40345903,33.16969425,69.95096637,-28.81819245,2.51683076,326.8303058,72.30080959,28.81819245,2.8775853,67352.72539,35210.25298,79.02717229
2023-05-16 07:02:37.000000 UTC,109.0464705,-27.75405328,83.00732842,-34.86294522,2.51684243,27.75405328,83.87805106,34.86294522,2.87759864,66916.28308,20875.69855,81.05307783
2023-05-16 07:12:37.000000 UTC,136.6319751,-122.3817788,68.73184799,-40.907698,2.51685409,122.3817788,71.20256399,40.907698,2.87761197,67413.08278,9531.005408,84.54027328
2023-05-16 07:22:37.000000 UTC,158.6326958,-139.6282785,42.90480877,-46.95245077,2.51686576,139.6282785,46.74493956,46.95245077,2.8776253,69226.05943,3534.589831,89.74106589
2023-05-16 07:32:37.000000 UTC,137.476023,-149.8393474,16.37783962,-52.99720354,2.51687743,149.8393474,18.57689651,52.99720354,2.87763863,71087.44415,5630.127197,95.55989047
2023-05-16 07:42:37.000000 UTC,109.8977641,-158.4406566,-5.3960631,-59.04195632,2.51688909,158.4406566,-6.16514286,59.04195632,2.87765196,71446.66004,15884.70182,99.65060684
2023-05-16 07:52:37.000000 UTC,89.13219465,-166.4866156,-21.21876461,-65.0867091,2.51690076,166.4866156,-23.940732,65.0867091,2.8776653,70829.10362,31074.66208,101.5887918
2023-05-16 08:02:37.000000 UTC,74.34571605,-174.3143565,-32.70276156,-71.13146187,2.51691242,174.3143565,-36.28731565,71.13146187,2.87767863,70039.50462,48337.25625,102.3216854
2023-05-16 08:12:37.000000 UTC,63.67932425,177.9322092,-41.36019096,-77.17621465,2.51692408,182.0677908,-45.19343823,77.17621465,2.87769196,69351.3594,66243.007,102.5085089
2023-05-16 08:22:37.000000 UTC,55.75406619,170.1756346,-48.13663811,-83.22096743,2.51693575,189.8243654,-51.91777798,83.22096743,2.87770529,68805.15161,84176.64084,102.4523583
2023-05-16 08:32:37.000000 UTC,49.68078862,162.3648613,-53.60357208,-89.26572021,2.51694741,197.6351387,-57.19322889,89.26572021,2.87771862,68382.36279,101879.7113,102.2873956
2023-05-16 08:42:37.000000 UTC,44.89537994,154.4597851,-58.11901258,-95.31047299,2.51695907,205.540215,-61.45819365,95.31047299,2.87773195,68056.26183,119247.6688,102.0753555
2023-05-16 08:52:37.000000 UTC,41.0333089,146.4242014,-61.91739123,-101.3552258,2.51697074,213.5757986,-64.98732276,101.3552258,2.87774528,67803.79246,136244.5079,101.8459033
2023-05-16 09:02:37.000000 UTC,37.85230877,138.2220155,-65.15834201,-107.3999786,2.5169824,221.7779845,-67.96047012,107.3999786,2.8777586,67607.1845,152865.5926,101.6137142
2023-05-16 09:12:37.000000 UTC,35.18657208,129.8148729,-67.95407384,-113.4447313,2.51699406,230.1851271,-70.49990942,113.4447313,2.87777193,67453.18399,169120.6721,101.3860962
2023-05-16 09:22:37.000000 UTC,32.9194273,121.16051,-70.38539832,-119.4894841,2.51700572,238.83949,-72.69127907,119.4894841,2.87778526,67331.96822,185025.7962,101.1665887
2023-05-16 09:32:37.000000 UTC,30.96667877,112.2116118,-72.51149821,-125.5342369,2.51701738,247.7883882,-74.59588153,125.5342369,2.87779859,67236.22808,200599.3592,100.9567481
2023-05-16 09:42:37.000000 UTC,29.26617654,102.9152639,-74.37609029,-131.5789897,2.51702904,257.0847361,-76.25818714,131.5789897,2.87781192,67160.47926,215860.1423,100.7570716
2023-05-16 09:52:37.000000 UTC,27.77110902,93.21336377,-76.01143312,-137.6237425,2.51704071,266.7866362,-77.71057045,137.6237425,2.87782524,67100.56544,230826.3597,100.5674914
2023-05-16 10:02:37.000000 UTC,26.44557781,83.04468297,-77.44102021,-143.6684953,2.51705237,276.955317,-78.97640506,143.6684953,2.87783857,67053.3037,245515.2191,100.3876449
2023-05-16 10:12:37.000000 UTC,25.26160794,72.34962903,-78.68148681,-149.7132481,2.51706403,287.650371,-80.07218767,149.7132481,2.87785189,67016.23153,259942.7507,100.2170261
2023-05-16 10:22:37.000000 UTC,24.19708324,61.07898575,-79.7441053,-155.7580008,2.51707569,298.9210143,-81.00913441,155.7580008,2.87786522,66987.42493,274123.7745,100.0550702
2023-05-16 10:32:37.000000 UTC,23.23429183,49.20756726,-80.63617151,-161.8027536,2.51708734,310.7924327,-81.79457962,161.8027536,2.87787855,66965.36677,288071.9392,99.90120097
2023-05-16 10:42:37.000000 UTC,22.35888256,36.75208017,-81.36252861,-167.8475064,2.517099,323.2479198,-82.43343121,167.8475064,2.87789187,66948.85033,301799.7935,99.7548568
2023-05-16 10:52:37.000000 UTC,21.55910385,23.7889918,-81.92736404,-173.8922592,2.51711066,336.2110082,-82.92982444,173.8922592,2.87790519,66936.9081,315318.8712,99.61550424
2023-05-16 11:02:37.000000 UTC,20.82523991,10.46386257,-82.3361868,-179.937012,2.51712232,349.5361374,-83.28890744,179.937012,2.87791852,66928.75854,328639.78,99.48264441
2023-05-16 11:12:37.000000 UTC,20.14918732,-3.01767285,-82.59757973,174.0182352,2.51713398,3.01767285,-83.5184134,185.9817648,2.87793184,66923.76599,341772.2858,99.3558151
2023-05-16 11:22:37.000000 UTC,19.52413302,-16.42061521,-82.7241304,167.9734824,2.51714564,16.42061521,-83.62950347,192.0265176,2.87794517,66921.41013,354725.3931,99.23459065
2023-05-16 11:32:37.000000 UTC,18.94430642,-29.52356508,-82.73213004,161.9287296,2.51715729,29.52356508,-83.63652531,198.0712704,2.87795849,66921.26255,367507.4175,99.11858036
2023-05-16 11:42:37.000000 UTC,18.40478663,-42.15584439,-82.64017404,155.8839768,2.51716895,42.15584439,-83.55580564,204.1160232,2.87797181,66922.96859,380126.0524,99.0074263
2023-05-16 11:52:37.000000 UTC,17.9013509,-54.21491103,-82.4672923,149.839224,2.51718061,54.21491103,-83.40402759,210.160776,2.87798513,66926.23316,392588.4279,98.9008009
2023-05-16 12:02:37.000000 UTC,17.43035443,-65.66292013,-82.23130653,143.7944712,2.51719226,65.66292013,-83.19680311,216.2055288,2.87799846,66930.80959,404901.1645,98.79840436
2023-05-16 12:12:37.000000 UTC,16.98863428,-76.51085289,-81.94780151,137.7497184,2.51720392,76.51085289,-82.94777929,222.2502816,2.87801178,66936.49083,417070.4207,98.69996224
2023-05-16 12:22:37.000000 UTC,16.57343177,-86.79988492,-81.62973102,131.7049656,2.51721557,86.79988492,-82.66829769,228.2950344,2.8780251,66943.10236,429101.9353,98.60522308